Fond du Lac, WI

12:18 AM CDT on March 26, 2017 (GMT -0500)
Fond du Lac County

Weather History for KFLD - November, 2013

Change the Weather History Date:

Saturday, November 2, 2013

  Actual Average Record
Temperature  
Mean Temperature 40 °F -  
Max Temperature 45 °F 50 °F 73 °F (1961)
Min Temperature 36 °F 35 °F 9 °F (1951)
Degree Days  
Heating Degree Days 24    
Moisture  
Dew Point 36 °F    
Average Humidity 82    
Maximum Humidity 93    
Minimum Humidity 66    
Precipitation  
Precipitation 0.07 in - - ()
Sea Level Pressure  
Sea Level Pressure 29.94 in    
Wind  
Wind Speed 6 mph (NNW)    
Max Wind Speed 10 mph    
Max Gust Speed -    
Visibility 10 miles    
Events Rain    
Averages and records for this station are not official NWS values.
T = Trace of Precipitation, MM = Missing Value Source: NWS Daily Summary

Daily Weather History Graph

Daily Weather History Graph

Search for Another Location

Airport or City:

Trip Planner

Search our weather history database for the weather conditions in past years. The results will help you decide how hot, cold, wet, or windy it might be!

Date:

Astronomy

Nov. 02, 2013 Rise Set
Actual Time 7:31 AM CDT 5:42 PM CDT
Civil Twilight 7:01 AM CDT 6:12 PM CDT
Nautical Twilight 6:27 AM CDT 6:46 PM CDT
Astronomical Twilight 5:54 AM CDT 7:20 PM CDT
Moon 6:27 AM CDT (11/2) 5:14 PM CDT (11/2)
Length of Visible Light 11h 11m
Length of Day
10h 11m
Waning Crescent, 1% of the Moon is Illuminated
Nov 2
Waning Crescent
Nov 3
New
Nov 9
First Quarter
Nov 17
Full
Nov 25
Last Quarter

Hourly Weather History & Observations

Time (CDT) Temp. Windchill Dew Point Humidity Pressure Visibility Wind Dir Wind Speed Gust Speed Precip Events Conditions
12:53 AM 42.1 °F 36.6 °F 39.0 °F 89% 29.75 in 9.0 mi NW 9.2 mph - 0.00 in   Overcast
1:53 AM 42.1 °F 38.4 °F 39.0 °F 89% 29.76 in 9.0 mi WNW 5.8 mph - 0.01 in   Overcast
2:53 AM 42.1 °F 38.4 °F 39.0 °F 89% 29.78 in 10.0 mi NW 5.8 mph - N/A   Overcast
3:17 AM 42.8 °F 38.0 °F 39.2 °F 87% 29.76 in 10.0 mi NW 8.1 mph - N/A   Overcast
3:45 AM 42.8 °F 39.3 °F 39.2 °F 87% 29.77 in 9.0 mi North 5.8 mph - N/A   Overcast
3:53 AM 42.1 °F 39.2 °F 39.0 °F 89% 29.79 in 10.0 mi North 4.6 mph - N/A   Overcast
4:00 AM 42.8 °F 40.1 °F 39.2 °F 87% 29.77 in 10.0 mi NNW 4.6 mph - N/A   Overcast
4:53 AM 42.1 °F 37.1 °F 39.0 °F 89% 29.81 in 10.0 mi NNW 8.1 mph - 0.01 in Rain Light Rain
5:11 AM 42.8 °F 38.6 °F 39.2 °F 87% 29.80 in 10.0 mi NNW 6.9 mph - 0.00 in Rain Light Rain
5:19 AM 42.8 °F 39.3 °F 39.2 °F 87% 29.81 in 10.0 mi NNW 5.8 mph - 0.00 in Rain Light Rain
5:45 AM 42.8 °F 38.0 °F 37.4 °F 81% 29.82 in 10.0 mi North 8.1 mph - 0.01 in Rain Light Rain
5:53 AM 42.1 °F 37.1 °F 37.9 °F 85% 29.84 in 10.0 mi NNW 8.1 mph - 0.01 in Rain Light Rain
6:34 AM 41.0 °F 36.4 °F 37.4 °F 87% 29.83 in 10.0 mi North 6.9 mph - 0.00 in   Overcast
6:53 AM 41.0 °F 36.4 °F 37.0 °F 86% 29.86 in 10.0 mi NNW 6.9 mph - 0.00 in Rain Light Rain
7:25 AM 41.0 °F 37.1 °F 37.4 °F 87% 29.86 in 10.0 mi NNW 5.8 mph - 0.00 in   Overcast
7:34 AM 41.0 °F 35.8 °F 37.4 °F 87% 29.86 in 10.0 mi NNW 8.1 mph - 0.00 in   Overcast
7:53 AM 41.0 °F 36.4 °F 37.0 °F 86% 29.88 in 10.0 mi NNW 6.9 mph - 0.00 in   Overcast
8:53 AM 41.0 °F 36.4 °F 37.0 °F 86% 29.92 in 10.0 mi NNW 6.9 mph - N/A   Overcast
9:53 AM 42.1 °F 36.1 °F 36.0 °F 79% 29.94 in 10.0 mi NNW 10.4 mph - N/A   Overcast
10:53 AM 43.0 °F 37.2 °F 34.0 °F 71% 29.96 in 10.0 mi North 10.4 mph - N/A   Overcast
11:53 AM 43.0 °F 38.2 °F 33.1 °F 68% 29.98 in 10.0 mi NNE 8.1 mph - N/A   Overcast
12:26 PM 44.6 °F 39.7 °F 33.8 °F 66% 29.96 in 10.0 mi North 9.2 mph - N/A   Overcast
12:38 PM 44.6 °F 40.2 °F 33.8 °F 66% 29.97 in 10.0 mi North 8.1 mph - N/A   Overcast
12:53 PM 44.1 °F 40.8 °F 34.0 °F 68% 29.99 in 10.0 mi NNW 5.8 mph - N/A   Overcast
1:53 PM 43.0 °F 38.2 °F 33.1 °F 68% 30.00 in 10.0 mi NNW 8.1 mph - N/A   Overcast
2:53 PM 43.0 °F 40.3 °F 34.0 °F 71% 30.01 in 10.0 mi NNW 4.6 mph - N/A   Overcast
3:53 PM 43.0 °F 40.3 °F 34.0 °F 71% 30.04 in 10.0 mi North 4.6 mph - N/A   Overcast
4:53 PM 43.0 °F - 34.0 °F 71% 30.06 in 10.0 mi Calm Calm - N/A   Overcast
5:21 PM 42.8 °F 38.0 °F 33.8 °F 70% 30.05 in 10.0 mi North 8.1 mph - 0.00 in Rain Light Rain
5:53 PM 39.9 °F 37.8 °F 35.1 °F 83% 30.08 in 10.0 mi North 3.5 mph - 0.04 in   Overcast
6:14 PM 39.2 °F - 35.6 °F 87% 30.07 in 10.0 mi Calm Calm - N/A   Overcast
6:53 PM 39.9 °F - 35.1 °F 83% 30.10 in 10.0 mi Calm Calm - N/A   Overcast
7:53 PM 39.0 °F 36.8 °F 36.0 °F 89% 30.12 in 10.0 mi West 3.5 mph - N/A   Overcast
8:53 PM 39.0 °F - 36.0 °F 89% 30.13 in 10.0 mi Calm Calm - N/A   Overcast
9:53 PM 39.0 °F - 36.0 °F 89% 30.15 in 10.0 mi Calm Calm - N/A   Overcast
10:53 PM 37.0 °F - 34.0 °F 89% 30.16 in 8.0 mi Calm Calm - N/A   Mostly Cloudy
11:53 PM 36.0 °F - 34.0 °F 93% 30.17 in 5.0 mi Calm Calm - N/A   Overcast